Change the Weather History Date:

Tuesday, April 29, 2014

  Actual Average Record
Temperature  
Mean Temperature 39 °F 48 °F  
Max Temperature 51 °F 61 °F 82 °F (1992)
Min Temperature 27 °F 35 °F 15 °F (1935)
Degree Days  
Heating Degree Days 26 17  
Month to date heating degree days 600 617  
Since 1 July heating degree days 7231 7236  
Cooling Degree Days 0 0  
Month to date cooling degree days 0 0  
Year to date cooling degree days 0 0  
Moisture  
Dew Point 19 °F    
Average Humidity 50    
Maximum Humidity 75    
Minimum Humidity 24    
Precipitation  
Precipitation 0.00 in 0.07 in 2.97 in (1895)
Month to date precipitation 0.70 1.79  
Year to date precipitation 2.68 3.94  
Snow  
Snow 0.00 in 0.50 in - ()
Month to date snowfall 4.3 16.3  
Since 1 July snowfall 73.5 86.0  
Snow Depth 0.00 in    
Sea Level Pressure  
Sea Level Pressure 30.35 in    
Wind  
Wind Speed 13 mph (North)    
Max Wind Speed 37 mph    
Max Gust Speed 45 mph    
Visibility 10 miles    
Events      
T = Trace of Precipitation, MM = Missing Value Source: NWS Daily Summary

Daily Weather History Graph

Daily Weather History Graph

Search for Another Location

Airport or City:

Trip Planner

Search our weather history database for the weather conditions in past years. The results will help you decide how hot, cold, wet, or windy it might be!

Date:

Astronomy

Apr. 29, 2014 Rise Set
Actual Time 6:11 AM MDT 8:13 PM MDT
Civil Twilight 5:41 AM MDT 8:44 PM MDT
Nautical Twilight 5:03 AM MDT 9:21 PM MDT
Astronomical Twilight 4:22 AM MDT 10:03 PM MDT
Moon 6:32 AM MDT (4/29) 8:57 PM MDT (4/29)
Length of Visible Light 15h 03m
Length of Day
14h 01m
New Moon, 0% of the Moon is Illuminated
Apr 29
New Moon
May 6
First Quarter
May 14
Full
May 21
Last Quarter
May 28
New

Hourly Weather History & Observations

Time (MDT) Temp. Windchill Dew Point Humidity Pressure Visibility Wind Dir Wind Speed Gust Speed Precip Events Conditions
12:53 AM 30.9 °F 24.3 °F 19.0 °F 61% 30.20 in 10.0 mi West 6.9 mph - N/A   Scattered Clouds
1:53 AM 32.0 °F 24.8 °F 17.1 °F 54% 30.22 in 10.0 mi West 8.1 mph - N/A   Mostly Cloudy
2:53 AM 28.9 °F 22.8 °F 18.0 °F 64% 30.27 in 10.0 mi SSE 5.8 mph - N/A   Clear
3:53 AM 32.0 °F 28.7 °F 17.1 °F 54% 30.28 in 10.0 mi SSE 3.5 mph - N/A   Overcast
4:53 AM 32.0 °F 25.6 °F 17.1 °F 54% 30.29 in 10.0 mi West 6.9 mph - N/A   Mostly Cloudy
5:53 AM 30.0 °F 25.2 °F 19.0 °F 64% 30.35 in 10.0 mi East 4.6 mph - N/A   Overcast
6:53 AM 30.0 °F 23.2 °F 19.9 °F 66% 30.36 in 10.0 mi SE 6.9 mph - N/A   Overcast
7:53 AM 34.0 °F - 19.0 °F 54% 30.37 in 10.0 mi Calm Calm - N/A   Overcast
8:53 AM 37.4 °F - 17.6 °F 45% 30.33 in 10.0 mi Calm Calm - N/A   Overcast
9:53 AM 43.0 °F 38.2 °F 17.1 °F 35% 30.36 in 10.0 mi NNW 8.1 mph - N/A   Overcast
10:53 AM 43.0 °F 35.7 °F 15.1 °F 32% 30.36 in 10.0 mi NNW 15.0 mph - N/A   Mostly Cloudy
11:53 AM 45.0 °F 36.4 °F 12.0 °F 26% 30.35 in 10.0 mi NNW 23.0 mph 29.9 mph N/A   Overcast
12:53 PM 48.0 °F - 14.0 °F 26% 30.35 in 10.0 mi NNE 20.7 mph - N/A   Overcast
1:53 PM 48.0 °F - 16.0 °F 28% 30.35 in 10.0 mi North 21.9 mph 36.8 mph N/A   Mostly Cloudy
2:53 PM 48.2 °F - 19.4 °F 32% 30.36 in 10.0 mi North 32.2 mph 40.3 mph N/A   Partly Cloudy
3:53 PM 48.9 °F - 16.0 °F 27% 30.34 in 10.0 mi North 24.2 mph 32.2 mph N/A   Overcast
4:53 PM 48.9 °F - 17.1 °F 28% 30.34 in 10.0 mi North 26.5 mph 34.5 mph N/A   Partly Cloudy
5:53 PM 46.9 °F - 15.1 °F 28% 30.38 in 10.0 mi North 26.5 mph 33.4 mph N/A   Mostly Cloudy
6:53 PM 45.0 °F 37.1 °F 18.0 °F 34% 30.39 in 10.0 mi North 19.6 mph 34.5 mph N/A   Overcast
7:53 PM 44.1 °F 37.7 °F 19.0 °F 37% 30.39 in 10.0 mi North 12.7 mph - N/A   Overcast
8:53 PM 39.9 °F 31.4 °F 26.1 °F 58% 30.41 in 10.0 mi NE 16.1 mph 24.2 mph N/A   Overcast
9:53 PM 39.0 °F 34.8 °F 26.1 °F 60% 30.42 in 10.0 mi North 5.8 mph - N/A   Overcast
10:53 PM 39.0 °F 32.8 °F 26.1 °F 60% 30.44 in 10.0 mi NNE 9.2 mph - N/A   Overcast
11:53 PM 36.0 °F 27.1 °F 28.9 °F 76% 30.45 in 10.0 mi North 13.8 mph 19.6 mph N/A   Overcast